星链-30157 (STARLINK-30157 )

导读

STARLINK-30157是美国SpaceX公司于2023年8月7日发射的星链低轨互联网通信卫星,属于星链星座组网计划的组成部分。卫星采用标准化平板设计,配备太阳能电池阵与氪工质霍尔推进器,搭载相控阵天线与星间激光链路,可提供高速低时延宽带互联网接入,服务全球偏远地区通信、航空航海等场景,设计寿命约5-7年,退役后将主动离轨在大气层焚毁。

基本信息
目录编号:
57512
目录名称:
STARLINK-30157
国际标识:
2023-113T
轨道中心:
EARTH
卫星名称:
星链-30157
卫星全名:
星链-30157 (STARLINK-30157 )
卫星状态:
在轨 (已飞行1045 天)
发射日期:
2023-08-07 UTC
国别 :
美国 (US)
星等 :
--
轨道信息
数据来源 国际轨道数据 AOE轨道数据
星历时间 2026-06-17T00:00:53+0800
1天前
查看轨道信息
2026-06-17T02:00:00+0800
22小时前
查看轨道信息
半长轴 6861.191km 6861.167km
偏心率 0.0000953 0.0000717
轨道倾角 43.002° 43.001°
近地点辐角 259.322° 229.801°
升交点赤经 151.301° 150.838°
平近点角 100.753° 225.713°
近地点 482.4km 482.538km
远地点 483.708km 483.522km
周期 94.267分钟 94.266分钟
每日圈数 15.275784 15.275864
详细信息
固有亮度:
5
最大亮度:
0.3
卫星平台:
Starlink v2.0 mini
覆盖范围:
全球
运营商:
太空探索技术公司
运营商所在国:
美国
制造商(研发单位):
太空探索技术公司
制造商所在国:
美国
使用方式:
暂无
卫星简介
星链(Starlink)计划是由太空探索技术公司(SpaceX)提出的一个巨型低轨卫星互联网星座项目,计划在2019年至2024年间在太空搭建由约1.2万颗卫星组成的“星链”网络,其中1584颗将部署在地球上空550千米处的近地轨道,并从2020年开始工作。该卫星仍在工作。
2D轨道图
3D轨道图
轨道高度分析图
轨道倾角分析图
轨道综合分析图
查看轨道综合分析图